Location: Unspecified
(44.0183°N, 0.0000°E)
Time: 04:19:04
(UTC+00:00)

OPS 1127 - Visible Passes

Search period start: 04 April 2026 00:00
Search period end: 14 April 2026 00:00
Orbit: 761 x 826 km, 98.4° (Epoch: 29 March)

Date Brightness Start Highest point End Pass type
(mag) Time Alt. Az. Time Alt. Az. Time Alt. Az.
4 Apr 7.6 19:18:15 10° NE 19:22:09 22° E 19:26:02 10° SE visible
4 Apr 7.4 20:57:06 10° N 21:01:57 47° WNW 21:06:48 10° SW visible
5 Apr 6.5 20:28:22 10° NNE 20:33:28 85° WNW 20:38:33 10° SSW visible
5 Apr 9.4 22:10:15 10° NNW 22:12:15 12° WNW 22:14:14 10° W visible
6 Apr 6.6 19:59:54 10° NNE 20:04:52 53° E 20:09:50 10° S visible
6 Apr 8.8 21:40:20 10° NNW 21:44:04 21° WNW 21:47:48 10° WSW visible
7 Apr 7.3 19:31:44 10° NE 19:36:09 29° E 19:40:34 10° SSE visible
7 Apr 8.0 21:11:10 10° N 21:15:45 36° WNW 21:20:22 10° SW visible
8 Apr 8.0 19:04:11 10° NE 19:07:19 16° E 19:10:28 10° SE visible
8 Apr 6.9 20:42:18 10° N 20:47:19 64° WNW 20:52:22 10° SSW visible
9 Apr 6.4 20:13:42 10° NNE 20:18:47 72° ESE 20:23:53 10° S visible
9 Apr 9.2 21:54:43 10° NNW 21:57:47 16° WNW 22:00:51 10° W visible
10 Apr 6.9 19:45:22 10° NNE 19:50:08 39° E 19:54:55 10° SSE visible
10 Apr 8.4 21:25:17 10° N 21:29:32 28° WNW 21:33:48 10° WSW visible
11 Apr 7.7 19:17:26 10° NE 19:21:21 22° E 19:25:17 10° SE visible
11 Apr 7.4 20:56:17 10° N 21:01:10 48° WNW 21:06:04 10° SW visible
12 Apr 6.5 20:27:33 10° NNE 20:32:40 86° WNW 20:37:49 10° SSW visible
12 Apr 9.4 22:09:23 10° NNW 22:11:28 13° WNW 22:13:33 10° W visible
13 Apr 6.6 19:59:05 10° NNE 20:04:05 53° E 20:09:06 10° S visible
13 Apr 8.9 21:39:30 10° NNW 21:43:17 21° WNW 21:47:05 10° WSW visible
